| time (UTC) | temp F | wind direction | speed knots | gust knots | rain 1hr in | rain 24hr in | rain mn in | humidity % | barometer mb |
| 20260901194531 | 78 | 38 | 0.9 | 4.3 | 0.00 | 0.00 | 0.00 | 41 | 1011.3 |
| 20260901193030 | 78 | 45 | 0.9 | 3.5 | 0.00 | 0.00 | 0.00 | 41 | 1011.5 |
| 20260901191531 | 77 | 56 | 0.9 | 6.1 | 0.00 | 0.00 | 0.00 | 43 | 1011.7 |
| 20260901190106 | 75 | 44 | 0.9 | 5.2 | 0.00 | 0.00 | 0.00 | 45 | 1011.8 |
| 20260901183034 | 73 | 18 | 0.0 | 2.6 | 0.00 | 0.00 | 0.00 | 48 | 1012.0 |
| 20260901181530 | 71 | 45 | 0.0 | 2.6 | 0.00 | 0.00 | 0.00 | 51 | 1012.1 |
| 20260901180108 | 70 | 43 | 0.9 | 7.8 | 0.00 | 0.00 | 0.00 | 53 | 1012.1 |
| 20260901174531 | 68 | 49 | 0.9 | 4.3 | 0.00 | 0.00 | 0.00 | 56 | 1012.0 |
| 20260901173107 | 66 | 39 | 0.9 | 6.1 | 0.00 | 0.00 | 0.00 | 59 | 1012.0 |
| 20260901171530 | 66 | 34 | 0.9 | 4.3 | 0.00 | 0.00 | 0.00 | 59 | 1012.0 |
| 20260901170031 | 65 | 21 | 1.7 | 6.1 | 0.00 | 0.00 | 0.00 | 60 | 1012.0 |
| 20260901164530 | 64 | 34 | 0.9 | 4.3 | 0.00 | 0.00 | 0.00 | 62 | 1012.1 |
| 20260901161528 | 63 | 36 | 0.9 | 3.5 | 0.00 | 0.00 | 0.00 | 64 | 1012.2 |
| 20260901160031 | 62 | 39 | 0.0 | 1.7 | 0.00 | 0.00 | 0.00 | 66 | 1012.2 |
| 20260901154608 | 61 | 31 | 0.9 | 4.3 | 0.00 | 0.00 | 0.00 | 68 | 1012.0 |
| 20260901153033 | 60 | 29 | 0.9 | 2.6 | 0.00 | 0.00 | 0.00 | 70 | 1012.0 |
| 20260901150031 | 56 | 4 | 0.0 | 0.9 | 0.00 | 0.00 | 0.00 | 68 | 1011.8 |
| 20260901144530 | 0 | 0 | 0.0 | 0.0 | 0.00 | 0.00 | 0.00 | 100 | |
| 20260901143031 | 0 | 0 | 0.0 | 0.0 | 0.00 | 0.00 | 0.00 | 100 | |
| 20260901140031 | 53 | 225 | 1.7 | 2.6 | 0.00 | 0.00 | 0.00 | 63 | 1011.5 |
| 20260901134530 | 0 | 0 | 0.0 | 0.0 | 0.00 | 0.00 | 0.00 | 100 | |
| 20260901133107 | 54 | 225 | 0.0 | 1.7 | 0.00 | 0.00 | 0.00 | 59 | 1011.2 |
| 20260901131606 | 54 | 225 | 0.9 | 1.7 | 0.00 | 0.00 | 0.00 | 58 | 1011.2 |
| 20260901130030 | 54 | 234 | 0.9 | 1.7 | 0.00 | 0.00 | 0.00 | 57 | 1011.1 |
| 20260901124529 | 55 | 242 | 0.9 | 1.7 | 0.00 | 0.00 | 0.00 | 56 | 1010.9 |
| 20260901123030 | 55 | 228 | 1.7 | 2.6 | 0.00 | 0.00 | 0.00 | 55 | 1010.9 |
| 20260901121608 | 0 | 0 | 0.0 | 0.0 | 0.00 | 0.00 | 0.00 | 100 | |
| 20260901120028 | 55 | 227 | 0.9 | 2.6 | 0.00 | 0.00 | 0.00 | 53 | 1011.0 |
| 20260901114532 | 55 | 225 | 1.7 | 2.6 | 0.00 | 0.00 | 0.00 | 53 | 1011.1 |
| 20260901113030 | 55 | 225 | 1.7 | 2.6 | 0.00 | 0.00 | 0.00 | 53 | 1010.9 |
| 20260901110030 | 56 | 225 | 1.7 | 1.7 | 0.00 | 0.00 | 0.00 | 51 | 1011.0 |
| 20260901104531 | 56 | 230 | 1.7 | 2.6 | 0.00 | 0.00 | 0.00 | 51 | 1010.9 |
| 20260901103031 | 56 | 226 | 0.9 | 2.6 | 0.00 | 0.00 | 0.00 | 51 | 1010.9 |
| 20260901101530 | 56 | 236 | 1.7 | 2.6 | 0.00 | 0.00 | 0.00 | 51 | 1011.0 |
| 20260901100030 | 57 | 225 | 0.0 | 0.9 | 0.00 | 0.00 | 0.00 | 48 | 1011.0 |
| 20260901094531 | 57 | 227 | 1.7 | 2.6 | 0.00 | 0.00 | 0.00 | 47 | 1011.0 |
| 20260901093029 | 57 | 228 | 1.7 | 3.5 | 0.00 | 0.00 | 0.00 | 47 | 1010.9 |
| 20260901084530 | 0 | 0 | 0.0 | 0.0 | 0.00 | 0.00 | 0.00 | 100 | |
| 20260901083030 | 59 | 229 | 1.7 | 3.5 | 0.00 | 0.00 | 0.00 | 43 | 1011.2 |
| 20260901081531 | 59 | 230 | 1.7 | 3.5 | 0.00 | 0.00 | 0.00 | 42 | 1011.1 |
| 20260901073031 | 0 | 0 | 0.0 | 0.0 | 0.00 | 0.00 | 0.00 | 100 | |
| 20260901071556 | 61 | 226 | 1.7 | 3.5 | 0.00 | 0.00 | 0.00 | 41 | 1011.0 |
| 20260901070107 | 61 | 228 | 1.7 | 3.5 | 0.00 | 0.00 | 0.00 | 40 | 1011.1 |
| 20260901063144 | 61 | 232 | 1.7 | 4.3 | 0.00 | 0.00 | 0.00 | 40 | 1011.3 |
| 20260901061530 | 61 | 224 | 1.7 | 3.5 | 0.00 | 0.00 | 0.00 | 41 | 1011.4 |
| 20260901060032 | 61 | 241 | 1.7 | 2.6 | 0.00 | 0.00 | 0.00 | 40 | 1011.4 |
| 20260901053031 | 64 | 238 | 1.7 | 2.6 | 0.00 | 0.00 | 0.00 | 37 | 1011.4 |
| 20260901051532 | 65 | 226 | 2.6 | 4.3 | 0.00 | 0.00 | 0.00 | 37 | 1011.5 |
| 20260901050033 | 65 | 227 | 2.6 | 3.5 | 0.00 | 0.00 | 0.00 | 37 | 1011.4 |
| 20260901044530 | 66 | 224 | 2.6 | 3.5 | 0.00 | 0.00 | 0.00 | 37 | 1011.3 |
| 20260901043030 | 67 | 225 | 1.7 | 3.5 | 0.00 | 0.00 | 0.00 | 38 | 1011.3 |
| 20260901041536 | 66 | 235 | 1.7 | 2.6 | 0.00 | 0.00 | 0.00 | 38 | 1011.3 |
| 20260901034529 | 0 | 0 | 0.0 | 0.0 | 0.00 | 0.00 | 0.00 | 100 | |
| 20260901033033 | 83 | 180 | 0.9 | 14.8 | 0.00 | 0.00 | 0.00 | 22 | 1010.4 |
| 20260901031532 | 0 | 0 | 0.0 | 0.0 | 0.00 | 0.00 | 0.00 | 100 | |
| 20260901030029 | 0 | 0 | 0.0 | 0.0 | 0.00 | 0.00 | 0.00 | 100 | |
| 20260901024530 | 0 | 0 | 0.0 | 0.0 | 0.00 | 0.00 | 0.00 | 100 | |
| 20260901023030 | 0 | 0 | 0.0 | 0.0 | 0.00 | 0.00 | 0.00 | 100 | |
| 20260901020031 | 83 | 180 | 0.9 | 0.9 | 0.00 | 0.00 | 0.00 | 22 | 1010.4 |
| 20260901014531 | 0 | 0 | 0.0 | 0.0 | 0.00 | 0.00 | 0.00 | 100 | |
| 20260901013031 | 83 | 154 | 0.0 | 1.7 | 0.00 | 0.00 | 0.00 | 22 | 1010.2 |
| 20260901010029 | 86 | 170 | 0.9 | 2.6 | 0.00 | 0.00 | 0.00 | 20 | 1010.3 |
| 20260901004533 | 87 | 169 | 0.9 | 4.3 | 0.00 | 0.00 | 0.00 | 19 | 1010.4 |
| 20260901003034 | 88 | 165 | 0.9 | 5.2 | 0.00 | 0.00 | 0.00 | 19 | 1010.5 |
| 20260831233031 | 87 | 172 | 1.7 | 5.2 | 0.00 | 0.00 | 0.00 | 20 | 1011.1 |
| 20260831224532 | 89 | 164 | 0.9 | 3.5 | 0.00 | 0.00 | 0.00 | 19 | 1012.0 |
| 20260831223104 | 88 | 139 | 0.9 | 3.5 | 0.00 | 0.00 | 0.00 | 20 | 1012.1 |
| 20260831220030 | 85 | 175 | 1.7 | 4.3 | 0.00 | 0.00 | 0.00 | 21 | 1012.5 |
| 20260831214530 | 85 | 177 | 1.7 | 4.3 | 0.00 | 0.00 | 0.00 | 22 | 1012.8 |
| 20260831213033 | 85 | 178 | 0.9 | 3.5 | 0.00 | 0.00 | 0.00 | 22 | 1013.0 |
| 20260831211532 | 85 | 176 | 1.7 | 5.2 | 0.00 | 0.00 | 0.00 | 22 | 1013.2 |
| 20260831210029 | 85 | 144 | 0.9 | 5.2 | 0.00 | 0.00 | 0.00 | 23 | 1013.4 |
| 20260831204528 | 86 | 152 | 1.7 | 5.2 | 0.00 | 0.00 | 0.00 | 23 | 1013.6 |
| 20260831203028 | 87 | 131 | 0.9 | 3.5 | 0.00 | 0.00 | 0.00 | 23 | 1013.9 |
| 20260831201534 | 86 | 135 | 0.0 | 4.3 | 0.00 | 0.00 | 0.00 | 23 | 1014.2 |